Regional Weather Roundup
Issued by NWS Little Rock, AR

Home | Current Version | Previous Version | Graphics & Text | Print | Product List | Glossary On
Versions: 1 2 3 4 5 6 7 8 9 10 11 12 13 14 15 16 17 18 19 20 21 22 23 24 25 26 27 28 29 30 31 32 33 34 35 36 37 38 39 40 41 42 43 44 45 46 47 48 49 50
816
ASUS44 KLZK 261805
RWRLZK

WEATHER ROUNDUP FOR ARKANSAS
NATIONAL WEATHER SERVICE LITTLE ROCK AR
100 PM CDT THU MAY 26 2016

NOTE: "FAIR" INDICATES FEW OR NO CLOUDS BELOW 12,000 FEET WITH NO
SIGNIFICANT WEATHER AND/OR OBSTRUCTIONS TO VISIBILITY.

ARZ001-003-010-029-261900-
NORTHWEST ARKANSAS

CITY           SKY/WX    TMP DP  RH WIND       PRES   REMARKS
FAYETTEVILLE   CLOUDY    80  72  76 S8        29.96F
6HR MIN TEMP:  74; 6HR MAX TEMP:  81;

FORT SMITH     CLOUDY    82  71  69 SE6       29.92F HX  86
6HR MIN TEMP:  74; 6HR MAX TEMP:  85;

HARRISON       MOSUNNY   83  71  67 S13G21    29.97F HX  87
6HR MIN TEMP:  73; 6HR MAX TEMP:  85;

BENTONVILLE    PTSUNNY   82  70  65 S14G21    29.95F HX  86
6HR MIN TEMP:  75; 6HR MAX TEMP:  82;

ROGERS           N/A     84  71  65 S18G25    29.95F HX  89
6HR MIN TEMP:  75; 6HR MAX TEMP:  84;

SILOAM SPGS    PTSUNNY   82  66  57 S10       29.94F HX  85
6HR MIN TEMP:  73; 6HR MAX TEMP:  82;

HIGHFILL       PTSUNNY   83  73  72 S14       29.94F HX  89
6HR MIN TEMP:  75; 6HR MAX TEMP:  83;

SPRINGDALE     MOSUNNY   81  72  74 S12       29.98F
$$

ARZ004-005-016-261900-
NORTH CENTRAL ARKANSAS

CITY           SKY/WX    TMP DP  RH WIND       PRES   REMARKS
BATESVILLE     PTSUNNY   82  72  69 S9        29.99F HX  87
6HR MIN TEMP:  73; 6HR MAX TEMP:  82;

FLIPPIN        MOSUNNY  N/A N/A N/A S8        29.92F
MTN HOME       MOSUNNY   85  73  67 S10       29.94F HX  91
6HR MIN TEMP:  72; 6HR MAX TEMP:  85;

$$

ARZ040-041-261900-
WEST CENTRAL ARKANSAS

CITY           SKY/WX    TMP DP  RH WIND       PRES   REMARKS
MENA           CLOUDY    81  75  83 S3        29.97F HX  86
MOUNT IDA      CLOUDY    82  71  69 VRB6      29.95F HX  86
6HR MIN TEMP:  77; 6HR MAX TEMP:  82;

$$

ARZ009-017-025-026-028-261900-
NORTHEAST ARKANSAS

CITY           SKY/WX    TMP DP  RH WIND       PRES   REMARKS
CORNING          N/A     82  75  78 S16G23    29.99F HX  89
JONESBORO      MOSUNNY   82  73  74 S14       30.00F HX  87
6HR MIN TEMP:  71; 6HR MAX TEMP:  82;

NEWPORT        CLOUDY    84  74  72 S12       30.00F HX  91
6HR MIN TEMP:  73; 6HR MAX TEMP:  84;

WALNUT RIDGE   MOSUNNY   81  72  74 S13       29.98F
6HR MIN TEMP:  72; 6HR MAX TEMP:  81;

BLYTHEVILLE    PTSUNNY   84  73  69 S10       30.01F HX  90
6HR MIN TEMP:  72; 6HR MAX TEMP:  85;

NW BLYTHEVILLE PTSUNNY   86  73  66 SW18G25   30.00F HX  93
$$

ARZ022-023-033-042-044-261900-
CENTRAL ARKANSAS

CITY           SKY/WX    TMP DP  RH WIND       PRES   REMARKS
LITTLE ROCK    CLOUDY    87  73  62 SW9       29.98F HX  94
6HR MIN TEMP:  77; 6HR MAX TEMP:  87;

N LITTLE ROCK    N/A     84  72  68 W6        29.95F HX  89
6HR MIN TEMP:  75; 6HR MAX TEMP:  84;

JACKSONVILLE   PTSUNNY   86  74  68 S7        29.97F HX  93
6HR MIN TEMP:  76; 6HR MAX TEMP:  86;

SEARCY         CLOUDY    86  75  69 S13       29.99F HX  95
6HR MIN TEMP:  73; 6HR MAX TEMP:  86;

HOT SPRINGS    CLOUDY    82  72  71 SW7       29.98F HX  87
6HR MIN TEMP:  76; 6HR MAX TEMP:  82;

RUSSELLVILLE   CLOUDY    82  70  66 S7        29.95F HX  86
6HR MIN TEMP:  78; 6HR MAX TEMP:  85;

CLINTON        CLOUDY    81  73  78 SE5       29.97F HX  85
$$

ARZ036-261900-
EAST ARKANSAS

CITY           SKY/WX    TMP DP  RH WIND       PRES   REMARKS
WEST MEMPHIS   PTSUNNY   84  72  67 SW8       30.01F HX  89
6HR MIN TEMP:  73; 6HR MAX TEMP:  84;

$$

ARZ050-053-066-070-073-261900-
SOUTHWEST ARKANSAS

CITY           SKY/WX    TMP DP  RH WIND       PRES   REMARKS
ARKADELPHIA    MOCLDY    84  73  69 SW9       29.98F HX  90
6HR MIN TEMP:  72; 6HR MAX TEMP:  85;

CAMDEN         CLOUDY    86  70  58 S8        29.99S HX  90
TEXARKANA      CLOUDY    80  73  79 S9        29.96F
6HR MIN TEMP:  75; 6HR MAX TEMP:  81;

EL DORADO      CLOUDY    85  72  65 S12       30.00S HX  91
6HR MIN TEMP:  77; 6HR MAX TEMP:  85;

DE QUEEN       TSTM      78  74  87 S6        29.94R
6HR MIN TEMP:  76; 6HR MAX TEMP:  81; 6HR PCP: TRACE;

$$

ARZ056-057-069-261900-
SOUTHEAST ARKANSAS

CITY           SKY/WX    TMP DP  RH WIND       PRES   REMARKS
PINE BLUFF     PTSUNNY   85  73  67 S14       29.99F HX  91
6HR MIN TEMP:  75; 6HR MAX TEMP:  86;

STUTTGART      CLOUDY    88  72  58 SW10G17   30.00F HX  94
6HR MIN TEMP:  73; 6HR MAX TEMP:  88;

MONTICELLO     CLOUDY    88  71  57 S9        30.00F HX  94
6HR MIN TEMP:  73; 6HR MAX TEMP:  88;


$$






USA.gov is the U.S. government's official web portal to all federal, state and local government web resources and services.